Temp
-9 -9 -9 -9 -9 -9 -9 -9 -9 -9 -9 -9 -9 -9 -9 -9 -9 -9 -9 -9 -9 -9 -9 -9 -9 -9 -9 -9 -9 -9 -9 -10 -10 -10 -10 -10 -10 -10 -11 -11 -11 -10 -11 -10 -10
-9 -9 -9 -9 -9 -9 -9 -9 -9 -9 -10 -9 -9 -9 -9 -9 -9 -9 -9 -9 -9 -9 -9 -9 -9 -9 -9 -9 -9 -9 -10 -10 -10 -10 -10 -10 -10 -10 -10 -11 -11 -11 -11 -11 -11
-10 -10 -10 -9 -9 -9 -9 -9 -10 -10 -10 -10 -10 -10 -9 -9 -9 -9 -9 -9 -9 -9 -9 -9 -9 -9 -9 -9 -10 -10 -10 -10 -10 -10 -10 -10 -10 -10 -10 -10 -11 -11 -11 -11 -11
-10 -10 -10 -10 -10 -10 -10 -10 -10 -10 -10 -10 -10 -10 -10 -9 -9 -9 -9 -9 -9 -9 -9 -9 -10 -10 -9 -10 -10 -10 -10 -10 -11 -11 -10 -10 -11 -11 -10 -10 -10 -11 -10 -10 -11
-10 -10 -10 -10 -10 -10 -10 -10 -10 -10 -10 -10 -10 -9 -9 -9 -9 -9 -9 -9 -9 -9 -10 -10 -10 -10 -10 -10 -10 -10 -10 -10 -10 -10 -11 -10 -11 -10 -11 -10 -11 -11 -11 -11 -11
-10 -10 -10 -10 -10 -10 -10 -10 -10 -10 -10 -10 -10 -10 -10 -10 -10 -10 -10 -9 -10 -10 -10 -10 -10 -10 -10 -10 -10 -10 -11 -11 -11 -11 -11 -11 -11 -11 -11 -10 -10 -11 -11 -11 -11
-11 -10 -10 -10 -10 -10 -10 -10 -10 -10 -10 -10 -10 -10 -10 -10 -10 -10 -10 -10 -10 -10 -10 -10 -10 -10 -10 -10 -10 -11 -10 -11 -11 -11 -10 -10 -11 -11 -10 -10 -10 -11 -11 -11 -11
-11 -11 -11 -11 -11 -11 -10 -10 -10 -10 -10 -10 -10 -10 -10 -10 -10 -10 -10 -10 -10 -10 -10 -10 -10 -10 -10 -11 -11 -10 -10 -10 -11 -10 -10 -10 -10 -11 -10 -10 -10 -11 -11 -10 -11
-11 -11 -11 -11 -11 -11 -11 -11 -11 -11 -11 -10 -10 -10 -10 -10 -11 -11 -11 -11 -11 -11 -11 -11 -10 -10 -11 -11 -11 -11 -11 -11 -11 -11 -10 -9 -9 -10 -11 -11 -11 -11 -11 -11 -10
-11 -12 -12 -11 -11 -11 -11 -11 -11 -11 -11 -11 -11 -11 -11 -11 -11 -11 -11 -11 -11 -11 -11 -11 -11 -11 -11 -11 -11 -11 -11 -11 -11 -11 -11 -10 -9 -9 -9 -9 -10 -10 -10 -10 -9
-12 -12 -12 -12 -12 -11 -11 -11 -11 -11 -11 -11 -11 -11 -11 -11 -11 -11 -11 -11 -11 -11 -11 -11 -11 -11 -11 -11 -11 -11 -11 -10 -11 -11 -11 -10 -10 -10 -11 -11 -11 -11 -10 -10 -10
-12 -12 -12 -12 -12 -12 -12 -11 -11 -11 -11 -12 -12 -11 -11 -11 -11 -11 -11 -11 -11 -11 -11 -11 -11 -11 -11 -11 -11 -11 -11 -11 -11 -11 -11 -11 -11 -11 -11 -12 -12 -11 -11 -11 -11
-12 -12 -12 -11 -12 -12 -12 -12 -11 -11 -11 -11 -11 -11 -11 -11 -11 -11 -12 -11 -11 -11 -11 -11 -11 -11 -11 -11 -11 -12 -12 -12 -12 -12 -12 -12 -11 -12 -12 -12 -11 -11 -12 -12 -11
-13 -12 -12 -11 -11 -12 -12 -11 -12 -11 -11 -10 -11 -11 -11 -11 -11 -12 -12 -11 -11 -11 -12 -11 -12 -12 -12 -12 -12 -12 -12 -12 -12 -12 -12 -12 -11 -12 -13 -12 -11 -11 -14 -14 -13
-13 -12 -12 -12 -12 -12 -12 -12 -12 -12 -11 -11 -11 -11 -12 -12 -12 -12 -12 -12 -13 -13 -13 -13 -12 -13 -13 -13 -13 -13 -13 -13 -13 -13 -13 -13 -13 -12 -13 -13 -13 -13 -14 -14 -14
-13 -12 -12 -12 -12 -12 -12 -12 -12 -13 -11 -12 -12 -12 -13 -13 -13 -13 -13 -13 -13 -13 -13 -13 -12 -13 -14 -14 -14 -14 -13 -14 -14 -14 -13 -14 -13 -12 -13 -14 -14 -15 -15 -15 -16
-13 -13 -13 -13 -13 -13 -13 -13 -14 -13 -12 -12 -13 -13 -13 -13 -14 -14 -14 -14 -14 -13 -13 -14 -14 -14 -14 -14 -14 -15 -15 -15 -14 -14 -14 -14 -13 -13 -14 -14 -14 -15 -15 -16 -16
-14 -14 -14 -13 -14 -14 -14 -14 -13 -12 -13 -13 -14 -14 -14 -14 -14 -15 -15 -15 -15 -15 -15 -15 -14 -15 -15 -15 -15 -15 -16 -16 -16 -15 -15 -14 -14 -14 -15 -16 -16 -16 -15 -16 -16
-14 -14 -14 -14 -14 -14 -14 -14 -13 -14 -15 -15 -15 -14 -15 -15 -15 -15 -15 -15 -16 -16 -16 -16 -15 -16 -15 -15 -16 -16 -16 -17 -17 -16 -16 -15 -15 -15 -16 -16 -16 -16 -16 -17 -17
-14 -14 -14 -14 -15 -15 -15 -14 -14 -15 -15 -15 -15 -15 -15 -16 -16 -16 -16 -15 -16 -16 -17 -16 -16 -17 -17 -16 -17 -18 -18 -18 -18 -19 -18 -17 -17 -16 -17 -18 -18 -18 -18 -18 -18
-15 -15 -14 -15 -15 -15 -14 -15 -16 -16 -16 -16 -16 -16 -16 -16 -16 -16 -16 -16 -16 -16 -17 -17 -17 -17 -17 -18 -18 -18 -18 -18 -19 -19 -19 -19 -18 -18 -18 -18 -18 -19 -19 -19 -19
-15 -15 -15 -16 -16 -15 -16 -16 -16 -16 -16 -17 -17 -16 -17 -18 -18 -18 -17 -18 -17 -17 -18 -19 -19 -18 -18 -18 -19 -19 -19 -19 -19 -19 -20 -21 -21 -20 -20 -20 -20 -21 -21 -20 -20
-15 -16 -17 -17 -16 -17 -17 -17 -17 -17 -18 -17 -17 -17 -18 -18 -18 -18 -18 -19 -18 -19 -19 -19 -19 -19 -19 -19 -20 -20 -20 -20 -21 -21 -21 -22 -21 -21 -22 -22 -21 -21 -21 -21 -21
-18 -18 -17 -17 -17 -17 -18 -18 -18 -18 -17 -17 -18 -18 -18 -18 -19 -19 -19 -19 -20 -20 -20 -20 -20 -20 -20 -20 -20 -21 -21 -21 -22 -23 -22 -22 -22 -22 -23 -23 -23 -23 -22 -22 -22
-19 -18 -18 -18 -17 -19 -18 -18 -19 -19 -19 -19 -18 -19 -19 -19 -20 -20 -20 -20 -20 -20 -20 -21 -20 -21 -21 -21 -21 -21 -21 -21 -22 -23 -23 -23 -24 -23 -23 -24 -24 -23 -23 -23 -23
-18 -18 -18 -18 -19 -19 -19 -18 -19 -19 -19 -19 -20 -20 -20 -20 -21 -20 -20 -20 -21 -20 -21 -21 -21 -22 -21 -22 -23 -23 -21 -22 -23 -23 -24 -24 -24 -24 -24 -24 -24 -24 -24 -24 -24
-19 -19 -19 -19 -19 -19 -19 -19 -20 -20 -20 -20 -20 -21 -21 -21 -21 -21 -21 -21 -21 -21 -22 -22 -22 -23 -22 -23 -24 -23 -22 -24 -24 -24 -24 -24 -24 -24 -24 -24 -24 -24 -25 -25 -25
Height
5856 5857 5858 5859 5860 5860 5861 5862 5862 5862 5863 5864 5864 5864 5865 5865 5865 5865 5865 5865 5864 5864 5863 5863 5863 5862 5862 5862 5861 5860 5860 5859 5857 5856 5854 5854 5855 5853 5853 5852 5850 5850 5849 5848 5849
5852 5853 5854 5855 5856 5856 5856 5857 5858 5858 5859 5860 5861 5861 5862 5861 5861 5862 5862 5861 5861 5860 5860 5859 5859 5858 5859 5858 5857 5856 5857 5855 5854 5852 5852 5850 5850 5849 5849 5849 5847 5844 5845 5845 5844
5847 5848 5849 5851 5851 5852 5852 5853 5853 5854 5855 5856 5857 5857 5857 5857 5857 5857 5857 5857 5856 5855 5855 5854 5854 5853 5853 5853 5852 5853 5852 5850 5851 5848 5848 5846 5845 5844 5843 5846 5840 5841 5841 5840 5838
5841 5843 5844 5846 5847 5848 5849 5849 5849 5850 5851 5851 5852 5853 5853 5853 5853 5850 5852 5852 5851 5850 5849 5848 5848 5848 5848 5847 5847 5848 5846 5845 5845 5843 5843 5842 5840 5839 5839 5841 5837 5834 5836 5836 5834
5835 5837 5838 5839 5841 5842 5842 5843 5844 5845 5845 5846 5846 5847 5848 5848 5847 5844 5846 5846 5845 5844 5843 5843 5843 5842 5843 5843 5841 5841 5841 5840 5838 5838 5836 5835 5836 5830 5837 5831 5832 5831 5831 5829 5829
5828 5829 5831 5832 5834 5835 5835 5836 5837 5838 5838 5838 5838 5839 5840 5842 5840 5838 5838 5839 5838 5838 5837 5837 5836 5836 5837 5836 5834 5835 5834 5834 5833 5830 5828 5829 5831 5825 5829 5826 5827 5825 5825 5824 5821
5820 5821 5823 5824 5826 5827 5828 5828 5829 5829 5829 5829 5830 5830 5833 5833 5832 5831 5831 5832 5831 5831 5830 5830 5829 5829 5830 5830 5828 5827 5824 5827 5827 5822 5818 5819 5825 5821 5818 5820 5821 5821 5819 5815 5813
5811 5812 5814 5815 5816 5818 5819 5820 5821 5821 5822 5822 5822 5823 5825 5827 5826 5825 5825 5825 5824 5824 5823 5823 5821 5822 5821 5821 5819 5819 5816 5815 5818 5814 5811 5808 5810 5816 5813 5813 5812 5814 5811 5808 5806
5802 5804 5805 5806 5807 5809 5810 5811 5812 5812 5813 5814 5814 5815 5817 5819 5819 5818 5817 5817 5816 5816 5815 5815 5813 5813 5814 5813 5809 5811 5807 5807 5803 5804 5803 5799 5795 5804 5811 5805 5805 5806 5803 5800 5796
5793 5795 5796 5796 5797 5799 5801 5802 5803 5804 5805 5805 5805 5808 5807 5811 5809 5810 5810 5809 5808 5807 5807 5806 5805 5804 5806 5803 5800 5798 5798 5795 5793 5796 5794 5793 5790 5789 5791 5798 5798 5797 5795 5791 5786
5784 5786 5786 5787 5789 5790 5793 5793 5796 5795 5797 5798 5797 5798 5796 5799 5800 5802 5801 5801 5800 5799 5797 5796 5797 5796 5795 5795 5792 5790 5788 5784 5785 5786 5783 5784 5786 5783 5784 5783 5786 5787 5784 5783 5783
5774 5776 5776 5777 5779 5781 5781 5782 5784 5785 5786 5789 5789 5785 5786 5788 5787 5791 5793 5792 5791 5791 5788 5788 5787 5787 5783 5784 5782 5781 5777 5778 5775 5774 5773 5773 5771 5775 5775 5775 5773 5771 5774 5776 5776
5764 5765 5765 5767 5769 5770 5772 5773 5773 5773 5773 5778 5778 5775 5775 5777 5778 5778 5781 5779 5779 5779 5778 5776 5777 5774 5773 5773 5773 5771 5769 5768 5765 5762 5763 5758 5758 5760 5765 5767 5760 5761 5763 5763 5764
5752 5754 5755 5756 5760 5761 5762 5761 5762 5762 5762 5761 5762 5766 5767 5767 5768 5767 5767 5768 5766 5766 5765 5764 5767 5765 5763 5760 5759 5760 5761 5760 5757 5756 5754 5748 5743 5747 5750 5745 5743 5744 5743 5746 5748
5740 5742 5743 5745 5746 5749 5750 5749 5750 5751 5751 5751 5749 5750 5752 5756 5759 5759 5757 5755 5754 5755 5756 5756 5756 5754 5755 5755 5752 5749 5749 5750 5749 5747 5743 5744 5743 5737 5734 5730 5731 5733 5732 5734 5735
5729 5729 5732 5733 5734 5737 5737 5738 5740 5742 5738 5740 5740 5742 5744 5745 5745 5746 5748 5747 5747 5747 5746 5744 5746 5746 5746 5745 5743 5742 5741 5740 5737 5735 5735 5735 5731 5731 5729 5727 5725 5722 5722 5721 5719
5717 5718 5720 5722 5724 5725 5727 5728 5730 5728 5728 5731 5733 5734 5735 5734 5733 5733 5734 5735 5735 5736 5733 5733 5735 5734 5732 5733 5733 5732 5729 5726 5726 5726 5726 5721 5721 5725 5721 5715 5714 5715 5711 5710 5709
5706 5708 5711 5712 5713 5713 5715 5718 5717 5717 5719 5721 5722 5722 5721 5722 5722 5722 5722 5723 5722 5721 5722 5723 5724 5723 5721 5722 5721 5719 5717 5717 5710 5712 5711 5717 5714 5719 5714 5707 5701 5700 5700 5700 5696
5695 5696 5698 5700 5700 5701 5703 5704 5705 5707 5709 5709 5708 5710 5709 5710 5710 5710 5712 5711 5706 5709 5711 5709 5709 5710 5711 5709 5709 5706 5704 5703 5695 5699 5694 5703 5700 5704 5703 5694 5691 5689 5687 5683 5680
5681 5684 5687 5687 5687 5687 5690 5692 5693 5698 5697 5698 5698 5699 5696 5697 5698 5698 5699 5698 5698 5699 5697 5694 5696 5698 5695 5694 5693 5692 5692 5688 5684 5679 5676 5679 5684 5688 5683 5677 5676 5674 5670 5666 5663
5666 5670 5675 5674 5673 5674 5676 5680 5681 5684 5687 5686 5685 5686 5687 5684 5683 5683 5683 5682 5682 5682 5682 5681 5681 5684 5684 5686 5682 5679 5679 5677 5673 5669 5661 5661 5667 5673 5666 5663 5657 5652 5650 5648 5646
5651 5655 5660 5660 5662 5661 5665 5668 5669 5670 5671 5671 5671 5671 5671 5670 5667 5669 5670 5667 5665 5666 5667 5663 5660 5665 5670 5671 5665 5661 5662 5662 5655 5655 5650 5644 5642 5653 5651 5648 5640 5636 5633 5630 5630
5634 5639 5643 5643 5645 5650 5651 5652 5652 5654 5656 5656 5656 5658 5657 5657 5652 5656 5655 5654 5652 5654 5651 5651 5646 5648 5655 5660 5649 5646 5649 5650 5642 5635 5632 5631 5631 5635 5634 5632 5625 5623 5621 5615 5613
5621 5625 5628 5630 5632 5633 5635 5638 5639 5641 5641 5642 5643 5641 5642 5642 5640 5640 5642 5641 5640 5639 5638 5635 5634 5633 5635 5641 5634 5629 5631 5633 5623 5614 5617 5614 5612 5620 5616 5609 5606 5606 5604 5597 5596
5607 5610 5616 5616 5623 5621 5619 5623 5623 5623 5627 5628 5627 5628 5626 5625 5626 5628 5627 5626 5626 5627 5625 5620 5622 5618 5620 5618 5618 5614 5615 5619 5609 5606 5596 5598 5595 5599 5597 5589 5585 5584 5581 5577 5573
5592 5597 5599 5601 5605 5606 5605 5611 5607 5608 5609 5613 5612 5610 5611 5611 5610 5611 5614 5612 5611 5610 5607 5605 5604 5603 5604 5599 5595 5594 5604 5598 5593 5590 5580 5577 5571 5579 5570 5566 5562 5558 5556 5553 5547
5575 5578 5579 5584 5586 5587 5593 5593 5592 5589 5590 5595 5597 5594 5595 5597 5596 5597 5596 5595 5595 5596 5593 5592 5587 5583 5582 5583 5576 5575 5589 5578 5574 5573 5567 5554 5555 5552 5547 5543 5537 5531 5527 5523 5519
Wind_Speed
23 23 22 21 20 20 19 18 18 17 16 15 15 13 13 13 14 14 15 16 17 18 20 20 22 22 21 22 23 23 21 19 21 21 23 21 19 23 22 20 23 21 23 25 21
28 27 26 25 24 23 22 21 19 19 20 20 20 19 20 19 20 20 20 21 22 23 24 25 26 26 25 25 25 24 21 21 21 22 23 25 25 24 23 23 23 28 23 22 22
32 31 30 28 27 26 24 22 21 20 20 20 22 23 24 24 25 26 26 27 28 27 29 31 29 27 26 24 26 23 23 23 21 25 24 27 27 28 27 20 30 27 28 27 26
35 34 33 31 30 28 26 25 25 25 25 26 26 27 28 29 31 32 31 32 34 33 32 30 28 26 24 24 24 24 26 26 26 30 30 31 31 31 30 25 29 33 30 29 28
38 38 37 36 34 33 31 31 31 31 32 32 33 33 34 33 35 38 35 35 36 34 31 28 27 28 27 26 28 28 27 29 34 32 31 32 31 35 27 32 29 31 31 32 31
38 37 38 38 37 36 36 36 37 37 38 39 39 38 37 36 37 39 36 33 31 30 30 32 32 31 28 29 34 32 32 33 32 34 35 34 32 36 30 32 31 33 33 34 34
41 41 41 41 41 41 41 41 40 39 38 37 36 34 31 30 31 32 32 31 33 34 34 34 34 33 34 34 36 35 37 34 33 38 41 39 31 33 35 33 32 31 33 36 37
40 40 40 39 40 40 40 38 38 38 36 36 36 36 34 32 34 35 36 37 38 38 37 35 38 38 38 38 40 40 41 40 37 40 41 43 41 33 36 34 35 31 33 36 37
43 42 42 41 42 41 40 41 40 40 40 41 41 42 39 37 37 39 39 38 38 38 38 39 41 42 41 41 44 41 46 45 47 44 41 44 46 39 32 37 36 34 38 39 39
42 41 41 43 42 42 41 40 41 41 40 40 41 41 41 38 40 39 40 40 41 42 43 44 45 45 40 43 45 46 46 49 50 47 48 47 48 48 45 39 38 40 38 38 45
44 44 45 46 44 43 43 44 44 45 42 42 44 43 45 43 44 42 42 43 43 43 42 44 43 42 43 45 49 52 53 52 51 48 50 48 47 50 51 50 42 39 40 42 42
48 47 49 48 46 45 44 45 45 46 45 42 44 47 45 44 45 41 39 41 41 42 45 45 46 48 52 50 51 53 58 55 52 52 53 52 53 47 46 46 48 50 46 42 41
51 51 51 51 49 49 49 50 50 51 52 48 48 50 50 48 48 47 42 45 46 46 48 50 48 52 55 52 50 50 50 51 53 51 50 56 58 56 52 47 50 50 46 43 41
57 55 57 56 55 54 54 55 55 55 55 57 56 54 50 49 46 43 42 42 42 42 41 44 35 40 45 46 46 45 45 49 52 55 56 57 62 59 55 58 61 57 48 45 44
54 55 58 59 57 55 56 55 55 55 56 56 57 53 48 42 38 39 39 39 40 37 39 42 42 41 41 43 47 48 46 46 47 51 56 55 57 61 59 61 61 58 56 52 49
49 47 46 48 53 56 54 52 51 49 56 52 50 47 47 44 42 41 41 43 44 45 45 46 48 46 44 42 43 46 47 49 51 52 57 56 59 62 60 58 58 57 58 58 55
49 45 44 44 47 50 49 46 45 47 51 50 49 48 47 48 49 48 47 47 48 48 50 49 47 48 49 49 47 47 50 53 55 55 57 58 60 59 58 61 61 60 59 56 55
50 49 49 50 48 49 49 48 51 54 51 52 49 49 49 47 49 49 50 49 49 50 49 48 49 49 53 53 52 50 50 49 53 56 58 54 58 56 55 56 59 60 61 61 60
54 48 46 47 47 51 53 54 54 49 47 47 48 50 51 51 51 53 51 51 53 51 47 49 51 49 50 51 52 51 49 49 53 55 57 59 59 55 54 58 59 62 63 61 60
55 60 55 52 51 54 52 52 53 48 47 46 47 49 50 48 51 51 50 53 52 50 53 56 56 52 50 51 48 47 48 50 51 53 57 59 58 56 55 58 58 59 60 63 63
55 54 57 50 50 55 56 53 48 45 43 47 53 55 57 60 59 60 63 61 58 55 51 47 47 48 47 44 45 48 49 51 52 55 58 60 59 53 57 57 58 61 64 62 61
56 55 54 52 52 57 54 51 55 56 58 59 61 62 62 58 58 56 56 50 53 49 44 45 48 49 48 46 48 51 52 53 57 58 58 56 51 42 47 54 54 55 60 60 63
70 63 55 58 61 58 58 63 63 62 62 63 63 61 60 59 57 56 52 51 51 48 49 49 53 54 54 52 52 53 54 53 56 57 55 56 57 53 52 54 62 65 67 72 76
63 57 57 59 59 60 61 58 58 59 61 61 60 60 60 56 53 54 52 51 51 51 52 53 55 56 57 56 56 57 57 56 60 63 63 64 65 60 61 64 66 66 67 71 72
64 67 67 66 68 68 65 64 58 61 60 59 60 58 56 56 56 54 54 54 56 56 54 56 57 59 58 60 59 61 62 61 64 64 67 67 67 66 67 72 74 75 76 77 78
68 69 69 72 73 69 64 64 63 63 63 61 56 56 56 56 56 57 57 56 57 59 59 60 61 61 62 62 62 64 64 65 65 66 70 72 75 71 75 76 77 78 79 79 82
69 73 74 77 70 70 66 63 62 60 61 58 56 56 59 59 58 57 57 59 60 60 61 63 64 66 69 66 69 71 64 67 69 69 72 77 76 76 77 79 80 79 76 77 77
Wind_Direction
248 251 256 260 264 270 272 273 270 262 260 258 257 260 268 274 280 284 288 290 293 297 300 301 299 295 292 290 288 288 289 292 290 292 293 296 295 298 298 296 297 298 301 306 303
252 254 259 264 268 272 271 267 265 260 256 255 257 260 269 274 277 281 284 286 288 291 293 294 293 291 287 285 283 285 289 286 291 291 295 298 300 294 294 294 290 297 303 306 310
254 256 259 263 267 270 266 264 263 263 262 260 261 265 268 271 274 277 279 282 283 285 287 291 288 285 286 287 282 284 288 284 287 290 293 293 291 290 288 290 292 290 297 305 305
255 257 259 262 264 265 263 262 262 263 264 266 267 268 270 273 277 277 279 282 284 286 285 282 282 281 283 283 281 286 283 281 287 293 294 290 288 283 287 289 281 288 295 299 299
255 258 259 261 261 261 261 263 263 265 266 268 269 269 270 272 275 277 278 282 283 284 283 282 284 285 285 284 287 286 279 281 287 290 288 287 286 285 291 282 282 282 288 290 294
255 257 258 259 261 260 262 265 267 269 271 272 272 272 271 271 272 275 277 278 281 283 284 286 285 285 285 288 290 290 285 283 287 288 288 286 286 289 283 283 284 284 285 287 286
254 254 256 258 260 262 264 267 268 268 269 270 272 272 275 276 273 273 275 278 281 282 283 285 285 284 288 289 289 287 285 288 288 286 289 290 283 283 288 291 288 285 286 284 283
254 254 256 258 260 262 264 265 267 269 269 270 272 273 274 274 275 275 276 279 281 282 282 281 283 285 286 286 287 287 288 285 282 285 289 288 284 281 290 297 294 293 287 283 280
254 256 258 258 260 261 263 266 266 268 269 271 273 275 274 275 275 275 276 277 279 280 280 281 281 283 285 287 286 288 286 286 289 286 283 284 285 286 286 288 292 291 291 287 281
256 258 259 259 260 262 263 264 267 268 270 272 273 275 276 276 275 274 276 277 278 279 280 280 280 282 284 284 286 287 291 290 287 289 292 291 292 295 297 293 294 293 290 283 285
259 260 260 261 262 263 266 267 268 268 269 271 274 273 276 276 275 276 276 278 278 277 278 278 281 281 280 282 285 288 287 285 285 285 286 287 286 291 297 299 296 291 289 290 294
260 260 261 263 266 269 268 270 271 273 274 274 276 278 275 279 277 277 276 277 277 278 277 280 278 280 282 279 279 284 287 288 288 289 288 290 289 287 286 293 296 291 288 288 291
260 262 263 264 266 269 273 274 274 275 276 276 276 277 279 278 280 281 279 278 279 276 277 277 278 278 279 279 279 280 282 282 285 285 287 291 290 291 294 293 287 289 295 291 285
262 262 264 265 266 269 273 273 272 273 275 278 280 279 278 279 282 285 284 281 278 278 275 278 271 271 274 280 282 283 283 286 287 288 291 292 293 299 303 298 296 302 310 309 304
266 266 264 262 267 271 273 273 272 273 274 277 279 283 286 287 287 287 284 281 277 275 277 279 278 273 274 278 283 284 286 285 286 287 288 291 294 297 299 299 302 309 308 304 304
263 265 266 264 265 267 269 271 273 272 272 272 275 280 285 287 284 281 280 282 284 284 282 281 284 282 279 278 278 281 284 286 286 286 285 292 290 290 296 299 302 301 301 305 306
262 266 264 263 267 265 264 265 268 267 271 274 276 281 282 281 282 281 280 281 278 276 275 276 276 276 278 280 282 286 286 286 285 286 286 288 289 289 295 296 295 298 299 299 298
259 261 261 264 265 260 256 262 266 269 273 274 276 277 277 279 279 280 280 279 274 272 274 272 271 273 278 281 283 286 287 286 285 285 284 283 286 290 292 292 291 292 291 290 289
245 251 251 254 258 260 258 259 265 267 271 275 272 270 273 274 274 275 276 276 274 276 276 275 277 281 282 283 287 288 285 283 283 282 283 286 286 286 286 285 284 285 287 286 284
250 249 252 249 256 262 262 260 263 270 269 271 273 273 274 274 276 277 276 277 279 281 279 279 282 282 282 287 286 283 283 283 286 288 287 287 289 293 288 285 283 282 281 281 280
240 243 247 252 253 257 262 260 260 267 269 267 272 275 274 279 283 285 288 290 289 288 283 278 274 278 280 282 279 279 280 284 283 283 284 286 285 284 283 281 284 282 280 276 273
252 251 250 258 253 253 254 258 263 266 271 276 279 283 284 286 287 290 291 283 286 285 280 276 275 280 286 284 284 284 285 283 284 288 284 284 282 284 277 281 274 271 269 268 270
262 269 263 267 266 259 265 274 281 280 281 280 280 281 283 285 284 285 284 279 281 279 277 276 276 280 286 288 285 280 283 284 283 283 282 279 283 283 279 272 267 266 270 271 275
266 265 255 259 252 259 277 276 271 270 273 275 279 281 282 283 280 281 278 274 272 272 274 275 277 282 285 287 284 283 285 289 284 281 285 281 284 283 280 278 276 273 272 272 273
264 264 262 264 264 274 274 275 269 271 273 278 279 279 277 276 274 273 271 270 272 273 272 272 276 276 280 281 279 278 282 283 278 281 280 286 281 283 280 278 276 278 280 279 276
265 259 262 269 269 268 269 272 272 277 279 280 277 274 271 271 270 269 271 272 272 272 272 273 275 275 276 277 277 276 280 281 281 283 283 285 285 286 284 284 284 282 281 279 278
261 258 268 272 269 265 269 273 277 279 279 279 275 268 268 269 267 267 267 267 268 270 272 274 275 276 276 277 278 278 285 282 281 283 286 284 287 287 286 286 287 287 286 284 283